User: anonymous   Login
Location: *
(51.0333°S, 178.4667°E)
Time: 10:49:14
(UTC+00:00)
Language:

Cosmos 332 Rocket - Orbit

View from above orbital plane
View from above orbital plane
View from above satellite
View from above satellite

Ground track
Ground track

The orbit data is extracted from the following two-line orbital elements,

1  4370U 70028B   20028.57035302 -.00000021 +00000-0 +19363-5 0  9999
2  4370 074.0386 066.7518 0014152 102.9147 257.3601 14.60021908150926
Epoch (UTC): 28 January 2020 13:41:18
Eccentricity: 0.0014152
inclination: 74.0386°
perigee height: 683 km
apogee height: 703 km
right ascension of ascending node: 66.7518°
argument of perigee: 102.9147°
revolutions per day: 14.60021908
mean anomaly at epoch: 257.3601°
orbit number at epoch: 15092

The dashed part of the orbit path shows where the satellite is in the earth's shadow,  

DLR